Zurück zum Katalog

COSMOS 1255

AktivNavigationLEO
NORAD 12325·PAYLOAD·🇷🇺 Russia

Gestartet Mar 6, 1981 von Plesetsk Cosmodrome

Loading…

Nächste Überflüge (nächste 24 Stunden)

TLE

AktuellSource: Space-Track

Epoche: Sep 14, 2026, 11:18 UTC

1 12325U 81022F   26257.47100411  .00000007  00000-0  15128-3 0  9993
2 12325  74.0304 152.1624 0017734 256.0345 277.6374 12.51492771 79754

Verfolge COSMOS 1255 in Echtzeit mit AllMySat

Download on the App Store